User: anonymous   Login
Location: Dead Woman Crossing
(43.5369°N, 106.3228°W)
Time: 12:41:48
(UTC+00:00)
Language:

COSMOS 2251 DEB - Orbit

View from above orbital plane
View from above orbital plane
View from above satellite
View from above satellite

Ground track
Ground track

The orbit data is extracted from the following two-line orbital elements,

1 34908U 93036ADD 22341.69197418  .00000994  00000-0  38036-3 0  9997
2 34908  74.0598 236.3450 0046100 171.9290 217.2299 14.31338099714940
Epoch (UTC): 07 December 2022 16:36:26
Eccentricity: 0.0046100
inclination: 74.0598°
perigee height: 754 km
apogee height: 820 km
right ascension of ascending node: 236.3450°
argument of perigee: 171.9290°
revolutions per day: 14.31338099
mean anomaly at epoch: 217.2299°
orbit number at epoch: 71494

The dashed part of the orbit path shows where the satellite is in the earth's shadow,  

DLR